Date String (YYYY-MM-DD hh:mm:ss) UTC,Instrument flags,Ambient pressure (hPa),Sample flow (lpm),Bypass flow (lpm),Sample temperature (°C),Ambient temperature (°C),ASC tube jacket temperature (°C),LED temperature (°C),Box temperature (°C),Sample RH (%),Span deviation,Mass concentration (μg/m³),Mass concentration (μg/m³),Mass concentration (μg/m³)
DateTimeUTC,F1_M11,P_M11,Q1_M11,Q2_M11,T1_M11,T2_M11,T3_M11,T4_M11,T5_M11,U1_M11,ZSPAN_M11,X0_M11,X2_M11,X1_M11
2021-12-22 11:00:00,,0821.7,5.01,0.00,23.2,22.3,00.0,32.2,24.9,03.0,0000.0,0001.26,0000.43,0000.34
2021-12-22 11:01:00,,0821.7,4.99,0.00,23.2,22.3,00.0,32.2,24.9,03.0,0000.0,0001.25,0000.43,0000.34
2021-12-22 11:02:00,,0821.8,5.00,0.00,23.2,22.3,00.0,32.2,25.0,03.0,0000.0,0001.25,0000.43,0000.33
2021-12-22 11:03:00,,0821.7,5.00,0.00,23.2,22.4,00.0,32.2,25.0,03.0,0000.0,0001.24,0000.43,0000.33
2021-12-22 11:04:00,,0821.8,5.01,0.00,23.2,22.4,00.0,32.2,25.0,03.0,0000.0,0001.01,0000.41,0000.32
2021-12-22 11:05:00,,0821.8,4.99,0.00,23.2,22.4,00.0,32.2,24.9,03.0,0000.0,0000.52,0000.39,0000.32
2021-12-22 11:06:00,,0821.8,5.01,0.00,23.3,22.3,00.0,32.0,24.3,03.0,0000.0,0000.55,0000.40,0000.32
2021-12-22 11:07:00,,0821.8,4.98,0.00,23.3,22.4,00.0,32.2,25.0,03.0,0000.0,0000.51,0000.38,0000.32
2021-12-22 11:08:00,,0821.8,5.00,0.00,23.3,22.4,00.0,32.2,25.0,02.9,0000.0,0000.48,0000.38,0000.32
2021-12-22 11:09:00,,0821.8,5.01,0.00,23.3,22.4,00.0,32.2,25.0,03.0,0000.0,0000.48,0000.37,0000.31
2021-12-22 11:10:00,,0821.8,4.99,0.00,23.3,22.4,00.0,32.2,25.0,03.0,0000.0,0000.47,0000.37,0000.31
2021-12-22 11:11:00,,0821.8,4.99,0.00,23.3,22.4,00.0,32.2,25.0,03.0,0000.0,0000.48,0000.36,0000.31
2021-12-22 11:12:00,,0821.8,5.00,0.00,23.3,22.4,00.0,32.2,25.0,02.9,0000.0,0002.28,0000.37,0000.31
2021-12-22 11:13:00,,0821.7,5.01,0.00,23.3,22.4,00.0,32.2,25.0,02.9,0000.0,0002.30,0000.38,0000.31
2021-12-22 11:14:00,,0821.8,5.01,0.00,23.3,22.4,00.0,32.2,25.0,02.9,0000.0,0002.29,0000.38,0000.32
2021-12-22 11:15:00,,0821.8,4.99,0.00,23.3,22.4,00.0,32.2,25.0,02.9,0000.0,0002.27,0000.37,0000.32
2021-12-22 11:16:00,,0821.8,5.00,0.00,23.3,22.4,00.0,32.2,25.0,03.0,0000.0,0002.27,0000.37,0000.32
2021-12-22 11:17:00,,0821.7,5.00,0.00,23.3,22.4,00.0,32.2,25.0,03.0,0000.0,0002.25,0000.36,0000.31
2021-12-22 11:18:00,,0821.8,5.00,0.00,23.3,22.5,00.0,32.2,25.0,03.0,0000.0,0002.25,0000.36,0000.31
2021-12-22 11:19:00,,0821.8,4.99,0.00,23.3,22.5,00.0,32.2,25.0,03.0,0000.0,0002.25,0000.35,0000.30
2021-12-22 11:20:00,,0821.7,5.01,0.00,23.3,22.5,00.0,32.2,25.0,03.0,0000.0,0002.27,0000.36,0000.30
2021-12-22 11:21:00,,0821.7,5.00,0.00,23.3,22.5,00.0,32.2,25.0,02.9,0000.0,0002.30,0000.37,0000.30
2021-12-22 11:22:00,,0821.7,4.99,0.00,23.3,22.5,00.0,32.3,25.0,03.0,0000.0,0002.20,0000.37,0000.30
2021-12-22 11:23:00,,0821.8,5.00,0.00,23.3,22.5,00.0,32.3,25.1,03.0,0000.0,0000.48,0000.36,0000.30
2021-12-22 11:24:00,,0821.8,5.00,0.00,23.3,22.5,00.0,32.3,25.1,03.0,0000.0,0000.46,0000.35,0000.30
2021-12-22 11:25:00,,0821.8,5.01,0.00,23.3,22.5,00.0,32.3,25.1,03.0,0000.0,0000.46,0000.34,0000.29
2021-12-22 11:26:00,,0821.8,5.00,0.00,23.3,22.5,00.0,32.3,25.1,03.0,0000.0,0000.49,0000.35,0000.29
2021-12-22 11:27:00,,0821.7,4.98,0.00,23.3,22.6,00.0,32.3,25.1,03.0,0000.0,0000.53,0000.36,0000.29
2021-12-22 11:28:00,,0821.7,5.00,0.00,23.3,22.6,00.0,32.3,25.1,03.0,0000.0,0000.57,0000.38,0000.29
2021-12-22 11:29:00,,0821.7,5.00,0.00,23.4,22.6,00.0,32.3,25.1,03.0,0000.0,0000.54,0000.37,0000.30
2021-12-22 11:30:00,,0821.7,5.01,0.00,23.4,22.6,00.0,32.3,25.1,03.0,0000.0,0000.56,0000.37,0000.29
2021-12-22 11:31:00,,0821.7,5.00,0.00,23.4,22.5,00.0,32.3,25.1,03.0,0000.0,0000.55,0000.36,0000.29
2021-12-22 11:32:00,,0821.7,5.00,0.00,23.4,22.5,00.0,32.3,25.1,03.0,0000.0,0000.54,0000.36,0000.29
2021-12-22 11:33:00,,0821.7,5.02,0.00,23.4,22.5,00.0,32.3,25.1,03.0,0000.0,0000.58,0000.38,0000.29
2021-12-22 11:34:00,,0821.6,4.99,0.00,23.4,22.5,00.0,32.3,25.1,03.0,0000.0,0000.61,0000.40,0000.30
2021-12-22 11:35:00,,0821.6,5.00,0.00,23.4,22.5,00.0,32.3,25.1,03.0,0000.0,0000.62,0000.40,0000.30
2021-12-22 11:36:00,,0821.6,4.99,0.00,23.4,22.5,00.0,32.3,25.1,03.0,0000.0,0000.62,0000.41,0000.31
2021-12-22 11:37:00,,0821.6,5.00,0.00,23.4,22.5,00.0,32.3,25.1,03.0,0000.0,0000.61,0000.40,0000.31
2021-12-22 11:38:00,,0821.5,4.99,0.00,23.4,22.5,00.0,32.3,25.0,03.0,0000.0,0000.62,0000.40,0000.30
2021-12-22 11:39:00,,0821.5,4.98,0.00,23.4,22.5,00.0,32.3,25.0,03.0,0000.0,0000.58,0000.38,0000.30
2021-12-22 11:40:00,,0821.7,5.02,0.00,23.3,22.4,00.0,32.3,24.9,03.0,0000.0,0000.64,0000.39,0000.29
2021-12-22 11:41:00,,0821.8,4.99,0.00,23.3,22.3,00.0,32.3,25.0,03.0,0000.0,0000.62,0000.38,0000.29
2021-12-22 11:42:00,,0821.7,5.01,0.00,23.3,22.4,00.0,32.3,25.0,03.0,0000.0,0000.63,0000.38,0000.29
2021-12-22 11:43:00,,0821.7,4.99,0.00,23.3,22.4,00.0,32.3,25.0,03.1,0000.0,0000.62,0000.38,0000.29
2021-12-22 11:44:00,,0821.8,5.01,0.00,23.3,22.4,00.0,32.3,25.0,03.1,0000.0,0000.57,0000.35,0000.28
2021-12-22 11:45:00,,0821.9,4.98,0.00,23.3,22.3,00.0,32.3,25.0,03.1,0000.0,0000.56,0000.34,0000.28
2021-12-22 11:46:00,,0822.0,5.01,0.00,23.2,22.3,00.0,32.3,24.9,03.0,0000.0,0000.55,0000.33,0000.27
2021-12-22 11:47:00,,0821.9,5.00,0.00,23.2,22.3,00.0,32.3,24.9,03.0,0000.0,0000.56,0000.34,0000.27
2021-12-22 11:48:00,,0822.0,4.99,0.00,23.2,22.3,00.0,32.3,24.9,03.1,0000.0,0000.59,0000.36,0000.28
2021-12-22 11:49:00,,0822.1,5.00,0.00,23.2,22.3,00.0,32.3,24.9,03.1,0000.0,0000.56,0000.36,0000.29
2021-12-22 11:50:00,,0822.0,5.00,0.00,23.2,22.3,00.0,32.3,24.9,03.1,0000.0,0000.56,0000.36,0000.29
2021-12-22 11:51:00,,0821.8,5.00,0.00,23.2,22.3,00.0,32.2,24.9,03.1,0000.0,0000.51,0000.36,0000.29
2021-12-22 11:52:00,,0821.7,5.00,0.00,23.2,22.3,00.0,32.2,24.9,03.1,0000.0,0000.50,0000.35,0000.29
2021-12-22 11:53:00,,0821.7,5.01,0.00,23.2,22.3,00.0,32.2,24.8,03.1,0000.0,0000.48,0000.34,0000.29
2021-12-22 11:54:00,,0821.8,5.00,0.00,23.2,22.3,00.0,32.2,24.9,03.1,0000.0,0000.47,0000.34,0000.29
2021-12-22 11:55:00,,0821.8,5.00,0.00,23.2,22.3,00.0,32.2,24.9,03.1,0000.0,0000.48,0000.35,0000.30
2021-12-22 11:56:00,,0821.8,5.00,0.00,23.2,22.3,00.0,32.2,24.9,03.1,0000.0,0000.48,0000.35,0000.30
2021-12-22 11:57:00,,0821.8,5.00,0.00,23.2,22.3,00.0,32.2,24.9,03.1,0000.0,0000.50,0000.36,0000.30
2021-12-22 11:58:00,,0821.8,5.00,0.00,23.2,22.3,00.0,32.2,24.9,03.2,0000.0,0000.48,0000.36,0000.29
2021-12-22 11:59:00,,0822.0,5.00,0.00,23.2,22.3,00.0,32.2,24.9,03.2,0000.0,0000.42,0000.33,0000.28
